Weather History for Wiscasset, ME

Change the Weather History Date:

Sunday, February 10, 2013

  Actual Average Record
Temperature  
Mean Temperature 22 °F -  
Max Temperature 36 °F 30 °F 48 °F (2001)
Min Temperature 5 °F 10 °F -2 °F (2011)
Degree Days  
Heating Degree Days 44    
Moisture  
Dew Point 1 °F    
Average Humidity 51    
Maximum Humidity 84    
Minimum Humidity 20    
Precipitation  
Precipitation 0.22 in - - ()
Sea Level Pressure  
Sea Level Pressure 30.29 in    
Wind  
Wind Speed 3 mph (WNW)    
Max Wind Speed 7 mph    
Max Gust Speed -    
Visibility 10 miles    
Events      
Averages and records for this station are not official NWS values.
T = Trace of Precipitation, MM = Missing Value Source: NWS Daily Summary

Daily Weather History Graph

Daily Weather History Graph

Search for Another Location

Airport:

Trip Planner

Search our weather history database for the weather conditions in past years. The results will help you decide how hot, cold, wet, or windy it might be!

Date:

Astronomy

Feb. 10, 2013 Rise Set
Actual Time 6:44 AM EST 5:02 PM EST
Civil Twilight 6:14 AM EST 5:32 PM EST
Nautical Twilight 5:40 AM EST 6:06 PM EST
Astronomical Twilight 5:07 AM EST 6:39 PM EST
Moon 6:29 AM EST 5:52 PM EST
Length of Visible Light 11h 17m
Length of Day
10h 17m
New Moon, 0% of the Moon is Illuminated
Feb 10
New Moon
Feb 17
First Quarter
Feb 25
Full
Mar 4
Last Quarter
Mar 11
New

Hourly Weather History & Observations

Time (EST) Temp. Windchill Dew Point Humidity Pressure Visibility Wind Dir Wind Speed Gust Speed Precip Events Conditions
12:53 AM 19.0 °F 10.0 °F 6.1 °F 57% 30.12 in 10.0 mi Variable 6.9 mph - N/A   Clear
1:53 AM 19.0 °F 13.9 °F 5.0 °F 54% 30.15 in 10.0 mi Variable 3.5 mph - N/A   Clear
2:53 AM 15.1 °F 7.7 °F 3.9 °F 61% 30.17 in 10.0 mi Variable 4.6 mph - N/A   Clear
3:53 AM 12.9 °F 5.2 °F 1.0 °F 59% 30.20 in 10.0 mi WNW 4.6 mph - N/A   Clear
4:53 AM 12.0 °F 4.1 °F -0.9 °F 56% 30.23 in 10.0 mi Variable 4.6 mph - N/A   Clear
5:53 AM 10.0 °F - -2.9 °F 56% 30.24 in 10.0 mi Calm Calm - N/A   Clear
6:53 AM 8.1 °F - -4.0 °F 58% 30.27 in 10.0 mi Calm Calm - N/A   Clear
7:53 AM 12.9 °F - -2.9 °F 49% 30.30 in 10.0 mi Calm Calm - N/A   Clear
8:53 AM 18.0 °F - -2.9 °F 40% 30.31 in 10.0 mi Calm Calm - N/A   Clear
9:53 AM 23.0 °F 14.7 °F -2.9 °F 32% 30.33 in 10.0 mi Variable 6.9 mph - N/A   Clear
10:53 AM 27.0 °F 19.5 °F -2.0 °F 29% 30.34 in 10.0 mi Variable 6.9 mph - N/A   Clear
11:53 AM 30.9 °F 27.5 °F -2.0 °F 24% 30.33 in 10.0 mi Variable 3.5 mph - 0.03 in   Clear
12:53 PM 33.1 °F 27.7 °F -2.0 °F 22% 30.32 in 10.0 mi WNW 5.8 mph - 0.06 in   Clear
1:53 PM 35.1 °F 29.3 °F -2.0 °F 21% 30.31 in 10.0 mi Variable 6.9 mph - 0.06 in   Clear
2:53 PM 36.0 °F 33.3 °F -2.0 °F 20% 30.30 in 10.0 mi Variable 3.5 mph - 0.04 in   Clear
3:53 PM 35.1 °F - -0.9 °F 22% 30.31 in 10.0 mi Calm Calm - 0.02 in   Clear
4:53 PM 28.0 °F 24.2 °F 9.0 °F 45% 30.34 in 10.0 mi Variable 3.5 mph - 0.01 in   Clear
5:53 PM 21.0 °F - 10.0 °F 63% 30.35 in 10.0 mi Calm Calm - N/A   Clear
6:53 PM 16.0 °F - 8.1 °F 71% 30.36 in 10.0 mi Calm Calm - N/A   Clear
7:53 PM 15.1 °F - 7.0 °F 70% 30.36 in 10.0 mi Calm Calm - N/A   Clear
8:53 PM 12.0 °F - 5.0 °F 73% 30.35 in 10.0 mi Calm Calm - N/A   Clear
9:53 PM 10.9 °F - 5.0 °F 77% 30.34 in 10.0 mi Calm Calm - N/A   Clear
10:53 PM 7.0 °F - 1.9 °F 80% 30.36 in 10.0 mi Calm Calm - N/A   Clear
11:53 PM 5.0 °F - 1.0 °F 84% 30.36 in 10.0 mi Calm Calm - N/A   Clear